Location: Beugnon
(47.6222°N, 3.7850°E)
Time: 08:10:33
(UTC+00:00)

IRIDIUM 103 - Pass Details

Date: 09 April 2020
Orbit: 776 x 779 km, 86.4° (Epoch: 01 June)

Event Time Altitude Azimuth Distance (km) Brightness Sun altitude
Rises 18:56:17 0° 356° (N) 3,277 7.9 -5.6°
Reaches altitude 10° 18:58:39 10° 357° (N) 2,344 7.1 -6.0°
Maximum altitude 19:03:55 88° 85° (E) 787 4.4 -6.9°
Drops below altitude 10° 19:09:08 10° 177° (S) 2,324 6.6 -7.7°
Sets 19:11:28 0° 178° (S) 3,247 7.3 -8.1°
